| time (UTC) | temp C | wind direction | speed KPH | gust KPH | rain 1hr cm | rain 24hr cm | rain mn cm | humidity % | barometer mb |
| 20260507015514 | 6 | 323 | 8.0 | 12.9 | 0.00 | 0.46 | 0.00 | 90 | 1011.2 |
| 20260507015006 | 6 | 321 | 6.4 | 12.9 | 0.00 | 0.48 | 0.00 | 90 | 1011.3 |
| 20260507014527 | 6 | 296 | 6.4 | 12.9 | 0.00 | 0.48 | 0.00 | 90 | 1011.2 |
| 20260507014506 | 6 | 295 | 6.4 | 12.9 | 0.00 | 0.48 | 0.00 | 90 | 1011.1 |
| 20260507014010 | 6 | 335 | 6.4 | 12.9 | 0.00 | 0.48 | 0.00 | 89 | 1011.2 |
| 20260507013508 | 6 | 323 | 6.4 | 9.7 | 0.00 | 0.51 | 0.00 | 89 | 1011.1 |
| 20260507013033 | 6 | 341 | 4.8 | 14.5 | 0.00 | 0.51 | 0.00 | 89 | 1011.1 |
| 20260507013007 | 6 | 330 | 4.8 | 14.5 | 0.00 | 0.51 | 0.00 | 89 | 1011.1 |
| 20260507012503 | 6 | 341 | 6.4 | 14.5 | 0.00 | 0.51 | 0.00 | 89 | 1011.1 |
| 20260507012007 | 6 | 342 | 6.4 | 14.5 | 0.00 | 0.53 | 0.00 | 89 | 1011.0 |
| 20260507011526 | 7 | 342 | 4.8 | 14.5 | 0.00 | 0.53 | 0.00 | 89 | 1011.0 |
| 20260507011504 | 7 | 342 | 4.8 | 14.5 | 0.00 | 0.53 | 0.00 | 89 | 1010.9 |
| 20260507011009 | 7 | 355 | 6.4 | 14.5 | 0.00 | 0.56 | 0.00 | 89 | 1010.9 |
| 20260507010510 | 7 | 338 | 6.4 | 14.5 | 0.00 | 0.56 | 0.00 | 89 | 1010.9 |
| 20260507010020 | 7 | 335 | 9.7 | 14.5 | 0.00 | 0.56 | 0.00 | 89 | 1010.8 |
| 20260507010015 | 7 | 335 | 9.7 | 14.5 | 0.00 | 0.56 | 0.00 | 89 | 1010.8 |
| 20260507005508 | 7 | 340 | 8.0 | 16.1 | 0.00 | 0.56 | 0.00 | 89 | 1010.8 |
| 20260507005014 | 7 | 5 | 8.0 | 16.1 | 0.00 | 0.58 | 0.00 | 88 | 1010.8 |
| 20260507004524 | 7 | 334 | 11.3 | 16.1 | 0.00 | 0.58 | 0.00 | 88 | 1010.8 |
| 20260507004506 | 7 | 334 | 11.3 | 16.1 | 0.00 | 0.58 | 0.00 | 88 | 1010.7 |
| 20260507004007 | 7 | 342 | 8.0 | 19.3 | 0.00 | 0.61 | 0.00 | 88 | 1010.7 |
| 20260507003509 | 7 | 318 | 6.4 | 19.3 | 0.00 | 0.61 | 0.00 | 88 | 1010.7 |
| 20260507003026 | 7 | 342 | 8.0 | 16.1 | 0.00 | 0.61 | 0.00 | 88 | 1010.7 |
| 20260507003011 | 7 | 338 | 8.0 | 16.1 | 0.00 | 0.61 | 0.00 | 88 | 1010.7 |
| 20260507002513 | 7 | 345 | 8.0 | 17.7 | 0.00 | 0.64 | 0.00 | 88 | 1010.7 |
| 20260507002011 | 7 | 333 | 11.3 | 19.3 | 0.00 | 0.64 | 0.00 | 88 | 1010.6 |
| 20260507001528 | 7 | 5 | 12.9 | 22.5 | 0.00 | 0.64 | 0.00 | 87 | 1010.6 |
| 20260507001508 | 7 | 346 | 12.9 | 22.5 | 0.00 | 0.64 | 0.00 | 87 | 1010.6 |
| 20260507001007 | 7 | 346 | 16.1 | 22.5 | 0.00 | 0.64 | 0.00 | 87 | 1010.6 |
| 20260507000507 | 7 | 348 | 12.9 | 17.7 | 0.00 | 0.64 | 0.00 | 87 | 1010.6 |
| 20260507000016 | 7 | 336 | 11.3 | 17.7 | 0.00 | 0.64 | 0.00 | 87 | 1010.6 |
| 20260507000008 | 7 | 336 | 11.3 | 17.7 | 0.00 | 0.64 | 0.00 | 87 | 1010.6 |
| 20260506235507 | 7 | 338 | 8.0 | 17.7 | 0.00 | 0.64 | 0.00 | 87 | 1010.5 |
| 20260506235006 | 7 | 344 | 9.7 | 17.7 | 0.00 | 0.64 | 0.00 | 87 | 1010.6 |
| 20260506234520 | 7 | 334 | 8.0 | 19.3 | 0.00 | 0.64 | 0.00 | 86 | 1010.7 |
| 20260506234507 | 7 | 334 | 8.0 | 19.3 | 0.00 | 0.64 | 0.00 | 86 | 1010.6 |
| 20260506234006 | 7 | 319 | 11.3 | 19.3 | 0.00 | 0.64 | 0.00 | 86 | 1010.6 |
| 20260506233510 | 7 | 342 | 11.3 | 17.7 | 0.00 | 0.64 | 0.00 | 86 | 1010.6 |
| 20260506233024 | 8 | 341 | 14.5 | 19.3 | 0.00 | 0.64 | 0.00 | 86 | 1010.6 |
| 20260506233008 | 8 | 341 | 14.5 | 19.3 | 0.00 | 0.64 | 0.00 | 86 | 1010.6 |
| 20260506232508 | 8 | 338 | 12.9 | 19.3 | 0.00 | 0.64 | 0.00 | 86 | 1010.6 |
| 20260506232009 | 8 | 336 | 9.7 | 20.9 | 0.00 | 0.64 | 0.00 | 85 | 1010.5 |
| 20260506231525 | 8 | 344 | 12.9 | 20.9 | 0.00 | 0.64 | 0.00 | 85 | 1010.5 |
| 20260506231508 | 8 | 336 | 12.9 | 20.9 | 0.00 | 0.64 | 0.00 | 85 | 1010.4 |
| 20260506231007 | 8 | 340 | 11.3 | 24.1 | 0.00 | 0.64 | 0.00 | 84 | 1010.5 |
| 20260506230509 | 8 | 350 | 16.1 | 24.1 | 0.00 | 0.64 | 0.00 | 84 | 1010.5 |
| 20260506230031 | 8 | 321 | 11.3 | 20.9 | 0.00 | 0.64 | 0.00 | 84 | 1010.4 |
| 20260506230013 | 8 | 5 | 11.3 | 20.9 | 0.00 | 0.64 | 0.00 | 84 | 1010.4 |
| 20260506225508 | 8 | 327 | 11.3 | 22.5 | 0.00 | 0.64 | 0.00 | 84 | 1010.4 |
| 20260506225011 | 8 | 330 | 16.1 | 22.5 | 0.00 | 0.64 | 0.00 | 83 | 1010.3 |
| 20260506224517 | 8 | 338 | 14.5 | 22.5 | 0.00 | 0.64 | 0.00 | 83 | 1010.4 |
| 20260506224506 | 8 | 338 | 14.5 | 22.5 | 0.00 | 0.64 | 0.00 | 83 | 1010.3 |
| 20260506224006 | 8 | 347 | 14.5 | 24.1 | 0.00 | 0.64 | 0.00 | 83 | 1010.3 |
| 20260506223506 | 8 | 300 | 14.5 | 24.1 | 0.00 | 0.64 | 0.00 | 83 | 1010.3 |
| 20260506223020 | 8 | 324 | 8.0 | 24.1 | 0.00 | 0.64 | 0.00 | 83 | 1010.3 |
| 20260506223006 | 8 | 324 | 8.0 | 24.1 | 0.00 | 0.64 | 0.00 | 83 | 1010.2 |
| 20260506222509 | 8 | 341 | 14.5 | 24.1 | 0.00 | 0.64 | 0.00 | 84 | 1010.3 |
| 20260506222013 | 8 | 338 | 9.7 | 16.1 | 0.00 | 0.64 | 0.00 | 84 | 1010.3 |
| 20260506221525 | 9 | 344 | 11.3 | 16.1 | 0.00 | 0.64 | 0.00 | 84 | 1010.2 |
| 20260506221510 | 9 | 344 | 9.7 | 16.1 | 0.00 | 0.64 | 0.00 | 84 | 1010.2 |
| 20260506221015 | 9 | 5 | 8.0 | 16.1 | 0.00 | 0.64 | 0.00 | 84 | 1010.3 |
| 20260506220509 | 9 | 350 | 8.0 | 16.1 | 0.00 | 0.64 | 0.00 | 84 | 1010.3 |
| 20260506220028 | 9 | 345 | 9.7 | 16.1 | 0.00 | 0.64 | 0.00 | 83 | 1010.2 |
| 20260506220012 | 9 | 330 | 9.7 | 16.1 | 0.00 | 0.64 | 0.00 | 83 | 1010.2 |
| 20260506215510 | 9 | 326 | 8.0 | 16.1 | 0.00 | 0.64 | 0.64 | 83 | 1010.2 |
| 20260506215011 | 9 | 323 | 8.0 | 14.5 | 0.00 | 0.64 | 0.64 | 83 | 1010.2 |
| 20260506214529 | 9 | 315 | 6.4 | 14.5 | 0.00 | 0.64 | 0.64 | 82 | 1010.2 |
| 20260506214518 | 9 | 300 | 8.0 | 14.5 | 0.00 | 0.64 | 0.64 | 82 | 1010.0 |
| 20260506214007 | 9 | 317 | 6.4 | 14.5 | 0.00 | 0.64 | 0.64 | 82 | 1010.1 |
| 20260506213506 | 9 | 325 | 6.4 | 12.9 | 0.00 | 0.64 | 0.64 | 82 | 1010.1 |
| 20260506213018 | 9 | 342 | 4.8 | 9.7 | 0.00 | 0.64 | 0.64 | 81 | 1010.1 |
| 20260506213010 | 9 | 342 | 4.8 | 9.7 | 0.00 | 0.64 | 0.64 | 81 | 1009.9 |
| 20260506212510 | 9 | 331 | 6.4 | 9.7 | 0.00 | 0.64 | 0.64 | 81 | 1010.0 |
| 20260506212004 | 9 | 331 | 4.8 | 9.7 | 0.00 | 0.64 | 0.64 | 81 | 1010.1 |
| 20260506211525 | 9 | 329 | 4.8 | 9.7 | 0.00 | 0.64 | 0.64 | 82 | 1010.0 |
| 20260506211510 | 9 | 330 | 4.8 | 9.7 | 0.00 | 0.64 | 0.64 | 82 | 1009.9 |
| 20260506211004 | 9 | 333 | 4.8 | 9.7 | 0.00 | 0.64 | 0.64 | 81 | 1010.0 |
| 20260506210504 | 9 | 340 | 4.8 | 8.0 | 0.00 | 0.64 | 0.64 | 82 | 1010.0 |
| 20260506210012 | 9 | 343 | 6.4 | 8.0 | 0.00 | 0.64 | 0.64 | 81 | 1010.0 |
| 20260506210007 | 9 | 346 | 6.4 | 9.7 | 0.00 | 0.64 | 0.64 | 81 | 1009.8 |
| 20260506205511 | 9 | 340 | 3.2 | 8.0 | 0.00 | 0.64 | 0.64 | 81 | 1010.0 |
| 20260506205009 | 9 | 328 | 3.2 | 8.0 | 0.00 | 0.64 | 0.64 | 81 | 1010.0 |
| 20260506204527 | 9 | 345 | 3.2 | 8.0 | 0.00 | 0.64 | 0.64 | 80 | 1009.9 |
| 20260506204007 | 9 | 349 | 3.2 | 8.0 | 0.00 | 0.64 | 0.64 | 80 | 1009.9 |
| 20260506203507 | 9 | 355 | 4.8 | 11.3 | 0.00 | 0.64 | 0.64 | 80 | 1009.9 |
| 20260506203035 | 9 | 350 | 6.4 | 11.3 | 0.00 | 0.64 | 0.64 | 80 | 1009.9 |
| 20260506203015 | 9 | 336 | 6.4 | 12.9 | 0.00 | 0.64 | 0.64 | 80 | 1009.8 |
| 20260506202510 | 9 | 336 | 6.4 | 9.7 | 0.00 | 0.64 | 0.64 | 80 | 1009.9 |
| 20260506202013 | 10 | 348 | 4.8 | 8.0 | 0.00 | 0.64 | 0.64 | 79 | 1009.8 |
| 20260506201522 | 10 | 355 | 3.2 | 8.0 | 0.00 | 0.64 | 0.64 | 79 | 1009.8 |
| 20260506201515 | 10 | 355 | 3.2 | 8.0 | 0.00 | 0.64 | 0.64 | 79 | 1009.6 |
| 20260506201010 | 10 | 9 | 0.0 | 9.7 | 0.00 | 0.64 | 0.64 | 79 | 1009.8 |
| 20260506200502 | 10 | 53 | 1.6 | 12.9 | 0.00 | 0.64 | 0.64 | 78 | 1009.8 |
| 20260506200015 | 10 | 80 | 4.8 | 12.9 | 0.00 | 0.64 | 0.64 | 78 | 1009.6 |
| 20260506200004 | 10 | 5 | 4.8 | 12.9 | 0.00 | 0.64 | 0.64 | 78 | 1009.8 |
| 20260506195502 | 10 | 355 | 3.2 | 12.9 | 0.00 | 0.64 | 0.64 | 78 | 1009.8 |
| 20260506195002 | 10 | 11 | 3.2 | 12.9 | 0.00 | 0.64 | 0.64 | 78 | 1009.7 |
| 20260506194510 | 10 | 13 | 4.8 | 12.9 | 0.00 | 0.64 | 0.64 | 78 | 1009.7 |
| 20260506194003 | 10 | 338 | 4.8 | 12.9 | 0.00 | 0.64 | 0.64 | 78 | 1009.6 |
| 20260506193503 | 10 | 5 | 4.8 | 12.9 | 0.00 | 0.64 | 0.64 | 78 | 1009.5 |
| 20260506193016 | 10 | 48 | 6.4 | 12.9 | 0.00 | 0.64 | 0.64 | 78 | 1009.5 |
| 20260506192507 | 10 | 5 | 3.2 | 9.7 | 0.00 | 0.64 | 0.64 | 78 | 1009.5 |
| 20260506192014 | 10 | 5 | 4.8 | 9.7 | 0.00 | 0.64 | 0.64 | 78 | 1009.4 |
| 20260506191518 | 10 | 5 | 3.2 | 12.9 | 0.00 | 0.64 | 0.64 | 77 | 1009.3 |
| 20260506191514 | 10 | 5 | 3.2 | 12.9 | 0.00 | 0.64 | 0.64 | 77 | 1009.2 |
| 20260506191006 | 10 | 140 | 4.8 | 17.7 | 0.00 | 0.64 | 0.64 | 77 | 1009.3 |
| 20260506190509 | 10 | 14 | 6.4 | 17.7 | 0.00 | 0.64 | 0.64 | 77 | 1009.3 |
| 20260506190021 | 10 | 81 | 8.0 | 14.5 | 0.00 | 0.64 | 0.64 | 77 | 1009.2 |
| 20260506190011 | 10 | 81 | 8.0 | 14.5 | 0.00 | 0.64 | 0.64 | 77 | 1009.1 |
| 20260506185510 | 10 | 346 | 1.6 | 14.5 | 0.00 | 0.64 | 0.64 | 77 | 1009.2 |
| 20260506185009 | 10 | 26 | 4.8 | 14.5 | 0.00 | 0.64 | 0.64 | 77 | 1009.2 |
| 20260506184519 | 10 | 16 | 4.8 | 16.1 | 0.00 | 0.64 | 0.64 | 78 | 1008.9 |
| 20260506184506 | 10 | 22 | 4.8 | 16.1 | 0.00 | 0.64 | 0.64 | 78 | 1009.1 |
| 20260506184004 | 10 | 5 | 6.4 | 17.7 | 0.00 | 0.64 | 0.64 | 77 | 1009.0 |
| 20260506183505 | 10 | 53 | 6.4 | 17.7 | 0.00 | 0.64 | 0.64 | 77 | 1009.0 |
| 20260506183011 | 10 | 15 | 6.4 | 14.5 | 0.00 | 0.64 | 0.64 | 77 | 1008.8 |
| 20260506183008 | 10 | 15 | 6.4 | 14.5 | 0.00 | 0.64 | 0.64 | 77 | 1008.9 |
| 20260506182507 | 10 | 5 | 4.8 | 14.5 | 0.00 | 0.64 | 0.64 | 78 | 1008.9 |
| 20260506182013 | 10 | 13 | 3.2 | 14.5 | 0.00 | 0.64 | 0.64 | 77 | 1008.8 |
| 20260506181515 | 10 | 63 | 4.8 | 14.5 | 0.00 | 0.64 | 0.64 | 77 | 1008.7 |
| 20260506181007 | 10 | 340 | 4.8 | 16.1 | 0.00 | 0.64 | 0.64 | 77 | 1008.7 |
| 20260506180509 | 10 | 80 | 6.4 | 16.1 | 0.00 | 0.64 | 0.64 | 76 | 1008.6 |
| 20260506180026 | 10 | 38 | 6.4 | 16.1 | 0.00 | 0.64 | 0.64 | 76 | 1008.5 |
| 20260506180016 | 10 | 38 | 6.4 | 16.1 | 0.00 | 0.64 | 0.64 | 76 | 1008.4 |
| 20260506175509 | 10 | 55 | 8.0 | 16.1 | 0.00 | 0.64 | 0.64 | 76 | 1008.4 |
| 20260506175012 | 10 | 32 | 8.0 | 16.1 | 0.00 | 0.64 | 0.64 | 76 | 1008.3 |
| 20260506174524 | 10 | 27 | 3.2 | 11.3 | 0.00 | 0.64 | 0.64 | 76 | 1008.3 |
| 20260506174513 | 10 | 27 | 3.2 | 11.3 | 0.00 | 0.64 | 0.64 | 76 | 1008.2 |
| 20260506174009 | 10 | 347 | 3.2 | 9.7 | 0.00 | 0.64 | 0.64 | 76 | 1008.2 |
| 20260506173504 | 10 | 26 | 6.4 | 11.3 | 0.00 | 0.64 | 0.64 | 75 | 1008.2 |
| 20260506173013 | 10 | 41 | 4.8 | 16.1 | 0.00 | 0.64 | 0.64 | 75 | 1008.1 |
| 20260506172503 | 10 | 27 | 3.2 | 16.1 | 0.00 | 0.64 | 0.64 | 75 | 1008.1 |
| 20260506172006 | 10 | 40 | 4.8 | 16.1 | 0.00 | 0.64 | 0.64 | 74 | 1008.1 |
| 20260506171514 | 10 | 19 | 4.8 | 19.3 | 0.00 | 0.64 | 0.64 | 74 | 1008.1 |
| 20260506171512 | 10 | 26 | 4.8 | 19.3 | 0.00 | 0.64 | 0.64 | 74 | 1008.0 |
| 20260506171004 | 10 | 62 | 6.4 | 19.3 | 0.00 | 0.64 | 0.64 | 74 | 1008.1 |
| 20260506170508 | 10 | 355 | 8.0 | 17.7 | 0.00 | 0.64 | 0.64 | 75 | 1008.1 |
| 20260506170018 | 10 | 61 | 8.0 | 19.3 | 0.00 | 0.64 | 0.64 | 74 | 1008.1 |
| 20260506170014 | 10 | 61 | 8.0 | 19.3 | 0.00 | 0.64 | 0.64 | 74 | 1007.9 |
| 20260506165511 | 10 | 46 | 11.3 | 20.9 | 0.00 | 0.64 | 0.64 | 74 | 1008.0 |
| 20260506165010 | 10 | 38 | 9.7 | 25.7 | 0.00 | 0.64 | 0.64 | 74 | 1008.1 |
| 20260506164520 | 10 | 13 | 16.1 | 30.6 | 0.00 | 0.64 | 0.64 | 74 | 1008.0 |
| 20260506164516 | 10 | 46 | 14.5 | 30.6 | 0.00 | 0.64 | 0.64 | 74 | 1007.9 |
| 20260506164011 | 10 | 59 | 19.3 | 30.6 | 0.00 | 0.64 | 0.64 | 75 | 1008.0 |
| 20260506163509 | 10 | 58 | 11.3 | 25.7 | 0.00 | 0.64 | 0.64 | 75 | 1008.0 |
| 20260506163031 | 10 | 44 | 9.7 | 22.5 | 0.00 | 0.64 | 0.64 | 76 | 1008.1 |
| 20260506163014 | 10 | 44 | 9.7 | 22.5 | 0.00 | 0.64 | 0.64 | 76 | 1007.9 |
| 20260506162510 | 10 | 49 | 8.0 | 22.5 | 0.00 | 0.64 | 0.64 | 77 | 1008.1 |
| 20260506162006 | 10 | 59 | 12.9 | 22.5 | 0.00 | 0.64 | 0.64 | 77 | 1008.0 |
| 20260506161511 | 10 | 32 | 12.9 | 24.1 | 0.00 | 0.64 | 0.64 | 77 | 1008.0 |
| 20260506161005 | 10 | 34 | 14.5 | 24.1 | 0.00 | 0.64 | 0.64 | 78 | 1008.1 |
| 20260506160510 | 10 | 59 | 14.5 | 20.9 | 0.00 | 0.64 | 0.64 | 78 | 1008.2 |
| 20260506160015 | 10 | 27 | 12.9 | 22.5 | 0.00 | 0.64 | 0.64 | 79 | 1008.1 |
| 20260506160012 | 10 | 27 | 12.9 | 22.5 | 0.00 | 0.64 | 0.64 | 79 | 1008.3 |
| 20260506155506 | 10 | 39 | 6.4 | 22.5 | 0.00 | 0.64 | 0.64 | 80 | 1008.2 |
| 20260506155009 | 10 | 65 | 8.0 | 22.5 | 0.00 | 0.64 | 0.64 | 80 | 1008.3 |
| 20260506154521 | 9 | 11 | 11.3 | 25.7 | 0.00 | 0.64 | 0.64 | 80 | 1008.2 |
| 20260506154013 | 9 | 30 | 9.7 | 30.6 | 0.00 | 0.64 | 0.64 | 81 | 1008.2 |
| 20260506153511 | 9 | 323 | 16.1 | 30.6 | 0.00 | 0.64 | 0.64 | 80 | 1008.1 |
| 20260506153021 | 9 | 51 | 12.9 | 25.7 | 0.00 | 0.64 | 0.64 | 82 | 1008.2 |
| 20260506152508 | 9 | 15 | 14.5 | 25.7 | 0.00 | 0.64 | 0.64 | 83 | 1008.1 |
| 20260506152012 | 9 | 52 | 11.3 | 24.1 | 0.00 | 0.64 | 0.64 | 83 | 1008.0 |
| 20260506151526 | 9 | 37 | 12.9 | 24.1 | 0.00 | 0.64 | 0.64 | 84 | 1008.1 |
| 20260506151508 | 9 | 38 | 12.9 | 24.1 | 0.00 | 0.64 | 0.64 | 84 | 1007.9 |
| 20260506151008 | 9 | 12 | 12.9 | 22.5 | 0.00 | 0.64 | 0.64 | 84 | 1008.0 |
| 20260506150507 | 9 | 51 | 8.0 | 20.9 | 0.00 | 0.64 | 0.64 | 86 | 1007.9 |
| 20260506150012 | 9 | 5 | 6.4 | 20.9 | 0.00 | 0.64 | 0.64 | 86 | 1007.9 |
| 20260506145511 | 9 | 26 | 8.0 | 19.3 | 0.00 | 0.64 | 0.64 | 87 | 1007.9 |
| 20260506145008 | 9 | 32 | 8.0 | 17.7 | 0.00 | 0.64 | 0.64 | 87 | 1007.8 |
| 20260506144534 | 9 | 33 | 8.0 | 22.5 | 0.00 | 0.64 | 0.64 | 87 | 1007.8 |
| 20260506144532 | 9 | 33 | 8.0 | 22.5 | 0.00 | 0.64 | 0.64 | 87 | 1007.6 |
| 20260506144006 | 9 | 59 | 9.7 | 24.1 | 0.00 | 0.64 | 0.64 | 87 | 1007.7 |
| 20260506143508 | 9 | 123 | 9.7 | 24.1 | 0.00 | 0.64 | 0.64 | 87 | 1007.8 |
| 20260506143025 | 9 | 26 | 9.7 | 24.1 | 0.00 | 0.64 | 0.64 | 87 | 1007.7 |
| 20260506143020 | 9 | 26 | 9.7 | 24.1 | 0.00 | 0.64 | 0.64 | 87 | 1007.6 |
| 20260506142513 | 9 | 290 | 8.0 | 20.9 | 0.00 | 0.64 | 0.64 | 88 | 1007.7 |
| 20260506142010 | 9 | 14 | 9.7 | 20.9 | 0.00 | 0.64 | 0.64 | 88 | 1007.6 |
| 20260506141524 | 9 | 36 | 8.0 | 20.9 | 0.00 | 0.64 | 0.64 | 88 | 1007.7 |
| 20260506141520 | 9 | 36 | 8.0 | 20.9 | 0.00 | 0.64 | 0.64 | 88 | 1007.5 |
| 20260506141018 | 9 | 32 | 4.8 | 24.1 | 0.00 | 0.64 | 0.64 | 88 | 1007.7 |
| 20260506140511 | 8 | 83 | 11.3 | 30.6 | 0.00 | 0.64 | 0.64 | 88 | 1007.6 |
| 20260506140028 | 8 | 284 | 16.1 | 30.6 | 0.00 | 0.64 | 0.64 | 88 | 1007.7 |
| 20260506140010 | 8 | 284 | 16.1 | 30.6 | 0.00 | 0.64 | 0.64 | 88 | 1007.5 |
| 20260506135513 | 8 | 59 | 11.3 | 25.7 | 0.00 | 0.64 | 0.64 | 88 | 1007.6 |
| 20260506135003 | 8 | 355 | 11.3 | 25.7 | 0.00 | 0.64 | 0.64 | 88 | 1007.6 |
| 20260506134527 | 8 | 355 | 8.0 | 24.1 | 0.00 | 0.64 | 0.64 | 88 | 1007.6 |
| 20260506134523 | 8 | 355 | 8.0 | 24.1 | 0.00 | 0.64 | 0.64 | 88 | 1007.5 |
| 20260506134008 | 8 | 47 | 12.9 | 24.1 | 0.00 | 0.64 | 0.64 | 88 | 1007.5 |
| 20260506133506 | 8 | 17 | 9.7 | 20.9 | 0.00 | 0.64 | 0.64 | 88 | 1007.5 |
| 20260506133020 | 8 | 71 | 8.0 | 25.7 | 0.00 | 0.64 | 0.64 | 88 | 1007.4 |
| 20260506133018 | 8 | 53 | 8.0 | 25.7 | 0.00 | 0.64 | 0.64 | 88 | 1007.5 |
| 20260506132522 | 8 | 34 | 6.4 | 29.0 | 0.00 | 0.64 | 0.64 | 88 | 1007.6 |
| 20260506132011 | 8 | 5 | 14.5 | 29.0 | 0.00 | 0.64 | 0.64 | 88 | 1007.5 |
| 20260506131531 | 8 | 5 | 9.7 | 27.4 | 0.00 | 0.64 | 0.64 | 88 | 1007.6 |
| 20260506131523 | 8 | 34 | 9.7 | 27.4 | 0.00 | 0.64 | 0.64 | 88 | 1007.4 |
| 20260506131011 | 8 | 42 | 14.5 | 27.4 | 0.00 | 0.64 | 0.64 | 88 | 1007.5 |
| 20260506130507 | 8 | 334 | 11.3 | 20.9 | 0.00 | 0.64 | 0.64 | 88 | 1007.5 |
| 20260506130035 | 8 | 23 | 6.4 | 22.5 | 0.00 | 0.64 | 0.64 | 88 | 1007.5 |
| 20260506130018 | 8 | 23 | 6.4 | 22.5 | 0.00 | 0.64 | 0.64 | 88 | 1007.4 |
| 20260506125510 | 8 | 22 | 11.3 | 22.5 | 0.00 | 0.64 | 0.64 | 88 | 1007.5 |
| 20260506125010 | 8 | 90 | 8.0 | 22.5 | 0.00 | 0.64 | 0.64 | 88 | 1007.5 |
| 20260506124527 | 8 | 15 | 11.3 | 22.5 | 0.00 | 0.64 | 0.64 | 88 | 1007.4 |
| 20260506124010 | 8 | 355 | 9.7 | 20.9 | 0.00 | 0.64 | 0.64 | 88 | 1007.4 |
| 20260506123507 | 8 | 77 | 11.3 | 25.7 | 0.00 | 0.64 | 0.64 | 88 | 1007.4 |
| 20260506123028 | 8 | 225 | 12.9 | 25.7 | 0.00 | 0.64 | 0.64 | 88 | 1007.2 |
| 20260506122507 | 8 | 355 | 8.0 | 22.5 | 0.00 | 0.64 | 0.64 | 88 | 1007.3 |
| 20260506122010 | 8 | 54 | 9.7 | 22.5 | 0.00 | 0.64 | 0.64 | 88 | 1007.3 |
| 20260506121520 | 8 | 15 | 11.3 | 22.5 | 0.00 | 0.64 | 0.64 | 87 | 1007.3 |
| 20260506121518 | 8 | 15 | 11.3 | 22.5 | 0.00 | 0.64 | 0.64 | 87 | 1007.2 |
| 20260506121011 | 8 | 18 | 8.0 | 24.1 | 0.00 | 0.64 | 0.64 | 88 | 1007.4 |
| 20260506120514 | 8 | 360 | 8.0 | 24.1 | 0.00 | 0.64 | 0.64 | 87 | 1007.3 |
| 20260506120029 | 8 | 5 | 11.3 | 25.7 | 0.00 | 0.64 | 0.64 | 88 | 1007.0 |
| 20260506120023 | 8 | 36 | 11.3 | 25.7 | 0.00 | 0.64 | 0.64 | 88 | 1007.2 |
| 20260506115504 | 8 | 39 | 4.8 | 22.5 | 0.00 | 0.64 | 0.64 | 88 | 1007.1 |
| 20260506115002 | 8 | 5 | 17.7 | 22.5 | 0.00 | 0.64 | 0.64 | 89 | 1007.1 |
| 20260506114521 | 8 | 5 | 6.4 | 19.3 | 0.00 | 0.64 | 0.64 | 90 | 1007.0 |
| 20260506114504 | 8 | 355 | 6.4 | 19.3 | 0.00 | 0.64 | 0.64 | 90 | 1007.2 |
| 20260506114005 | 8 | 355 | 9.7 | 22.5 | 0.00 | 0.64 | 0.64 | 89 | 1007.1 |
| 20260506113506 | 8 | 5 | 8.0 | 22.5 | 0.00 | 0.64 | 0.64 | 90 | 1007.1 |
| 20260506113020 | 8 | 5 | 4.8 | 25.7 | 0.00 | 0.64 | 0.64 | 90 | 1006.9 |
| 20260506113007 | 8 | 67 | 4.8 | 25.7 | 0.00 | 0.64 | 0.64 | 90 | 1007.1 |
| 20260506112503 | 8 | 335 | 6.4 | 25.7 | 0.00 | 0.64 | 0.64 | 90 | 1007.1 |
| 20260506112003 | 8 | 355 | 9.7 | 24.1 | 0.00 | 0.61 | 0.61 | 90 | 1007.1 |
| 20260506111518 | 8 | 346 | 4.8 | 17.7 | 0.00 | 0.61 | 0.61 | 91 | 1006.8 |
| 20260506111507 | 8 | 346 | 4.8 | 16.1 | 0.00 | 0.61 | 0.61 | 91 | 1007.0 |
| 20260506111004 | 8 | 12 | 11.3 | 22.5 | 0.00 | 0.61 | 0.61 | 91 | 1007.0 |
| 20260506110505 | 8 | 22 | 11.3 | 22.5 | 0.00 | 0.61 | 0.61 | 91 | 1007.0 |
| 20260506110018 | 8 | 355 | 9.7 | 22.5 | 0.00 | 0.61 | 0.61 | 92 | 1006.7 |
| 20260506110006 | 8 | 215 | 11.3 | 22.5 | 0.00 | 0.61 | 0.61 | 92 | 1006.9 |
| 20260506105504 | 8 | 5 | 9.7 | 22.5 | 0.00 | 0.61 | 0.61 | 91 | 1006.9 |
| 20260506105005 | 8 | 5 | 11.3 | 24.1 | 0.00 | 0.61 | 0.61 | 92 | 1007.0 |
| 20260506104526 | 8 | 78 | 6.4 | 24.1 | 0.00 | 0.61 | 0.61 | 92 | 1006.7 |
| 20260506104506 | 8 | 77 | 8.0 | 24.1 | 0.00 | 0.61 | 0.61 | 92 | 1006.9 |
| 20260506104002 | 8 | 333 | 12.9 | 22.5 | 0.00 | 0.61 | 0.61 | 92 | 1006.9 |
| 20260506103504 | 8 | 159 | 4.8 | 19.3 | 0.00 | 0.61 | 0.61 | 92 | 1007.0 |
| 20260506103025 | 8 | 44 | 6.4 | 19.3 | 0.00 | 0.61 | 0.61 | 92 | 1006.6 |
| 20260506103009 | 8 | 17 | 6.4 | 19.3 | 0.00 | 0.61 | 0.61 | 92 | 1007.0 |
| 20260506102504 | 8 | 14 | 4.8 | 14.5 | 0.00 | 0.61 | 0.61 | 92 | 1007.0 |
| 20260506102006 | 8 | 24 | 6.4 | 19.3 | 0.00 | 0.61 | 0.61 | 92 | 1006.9 |
| 20260506101520 | 8 | 42 | 6.4 | 22.5 | 0.00 | 0.58 | 0.58 | 92 | 1006.9 |
| 20260506101516 | 8 | 42 | 6.4 | 22.5 | 0.00 | 0.58 | 0.58 | 92 | 1006.5 |
| 20260506101007 | 8 | 28 | 8.0 | 22.5 | 0.00 | 0.58 | 0.58 | 92 | 1006.8 |
| 20260506100505 | 8 | 23 | 6.4 | 20.9 | 0.00 | 0.58 | 0.58 | 92 | 1006.8 |
| 20260506100007 | 8 | 5 | 8.0 | 20.9 | 0.00 | 0.58 | 0.58 | 92 | 1006.8 |
| 20260506095506 | 8 | 5 | 8.0 | 29.0 | 0.00 | 0.58 | 0.58 | 92 | 1006.8 |
| 20260506095004 | 8 | 323 | 6.4 | 29.0 | 0.00 | 0.58 | 0.58 | 93 | 1006.8 |
| 20260506094525 | 7 | 19 | 11.3 | 20.9 | 0.00 | 0.58 | 0.58 | 93 | 1006.4 |
| 20260506094520 | 7 | 5 | 11.3 | 20.9 | 0.00 | 0.58 | 0.58 | 93 | 1006.8 |
| 20260506094004 | 8 | 32 | 8.0 | 17.7 | 0.03 | 0.58 | 0.58 | 93 | 1006.7 |
| 20260506093503 | 8 | 59 | 4.8 | 17.7 | 0.03 | 0.58 | 0.58 | 94 | 1006.8 |
| 20260506093031 | 8 | 114 | 6.4 | 14.5 | 0.03 | 0.58 | 0.58 | 93 | 1006.3 |
| 20260506093014 | 8 | 47 | 6.4 | 14.5 | 0.03 | 0.58 | 0.58 | 94 | 1006.8 |
| 20260506092504 | 8 | 297 | 3.2 | 16.1 | 0.03 | 0.58 | 0.58 | 94 | 1006.7 |
| 20260506092011 | 8 | 19 | 4.8 | 16.1 | 0.03 | 0.58 | 0.58 | 93 | 1006.7 |
| 20260506091524 | 8 | 11 | 4.8 | 17.7 | 0.03 | 0.58 | 0.58 | 93 | 1006.2 |
| 20260506091508 | 8 | 31 | 4.8 | 17.7 | 0.03 | 0.58 | 0.58 | 93 | 1006.7 |
| 20260506091004 | 7 | 348 | 4.8 | 14.5 | 0.05 | 0.58 | 0.58 | 93 | 1006.7 |
| 20260506090503 | 7 | 49 | 4.8 | 16.1 | 0.05 | 0.58 | 0.58 | 93 | 1006.7 |
| 20260506090015 | 7 | 355 | 6.4 | 17.7 | 0.03 | 0.56 | 0.56 | 93 | 1006.2 |
| 20260506090007 | 7 | 38 | 6.4 | 16.1 | 0.03 | 0.56 | 0.56 | 93 | 1006.7 |
| 20260506085503 | 7 | 38 | 4.8 | 17.7 | 0.03 | 0.56 | 0.56 | 93 | 1006.7 |
| 20260506085004 | 7 | 34 | 8.0 | 17.7 | 0.05 | 0.56 | 0.56 | 93 | 1006.7 |
| 20260506084519 | 7 | 32 | 4.8 | 16.1 | 0.05 | 0.56 | 0.56 | 93 | 1006.2 |
| 20260506084511 | 7 | 32 | 4.8 | 16.1 | 0.05 | 0.56 | 0.56 | 93 | 1006.6 |
| 20260506084004 | 7 | 355 | 4.8 | 16.1 | 0.03 | 0.56 | 0.56 | 93 | 1006.7 |
| 20260506083505 | 7 | 26 | 8.0 | 17.7 | 0.03 | 0.56 | 0.56 | 93 | 1006.6 |
| 20260506083029 | 7 | 48 | 8.0 | 17.7 | 0.05 | 0.56 | 0.56 | 93 | 1006.1 |
| 20260506083011 | 7 | 5 | 8.0 | 17.7 | 0.05 | 0.56 | 0.56 | 93 | 1006.6 |
| 20260506082503 | 7 | 90 | 4.8 | 14.5 | 0.05 | 0.56 | 0.56 | 93 | 1006.5 |
| 20260506082006 | 7 | 19 | 4.8 | 17.7 | 0.05 | 0.56 | 0.56 | 93 | 1006.6 |
| 20260506081510 | 7 | 44 | 6.4 | 17.7 | 0.05 | 0.56 | 0.56 | 93 | 1006.4 |
| 20260506081006 | 7 | 39 | 6.4 | 17.7 | 0.03 | 0.53 | 0.53 | 93 | 1006.5 |
| 20260506080506 | 7 | 26 | 9.7 | 16.1 | 0.03 | 0.53 | 0.53 | 93 | 1006.5 |
| 20260506073507 | 7 | 57 | 3.2 | 17.7 | 0.03 | 0.51 | 0.51 | 93 | 1006.3 |
| 20260506073026 | 7 | 74 | 4.8 | 14.5 | 0.03 | 0.48 | 0.48 | 93 | 1006.3 |
| 20260506073021 | 7 | 74 | 4.8 | 14.5 | 0.03 | 0.48 | 0.48 | 93 | 1005.9 |
| 20260506072507 | 7 | 61 | 6.4 | 16.1 | 0.03 | 0.48 | 0.48 | 93 | 1006.3 |
| 20260506072008 | 7 | 67 | 8.0 | 17.7 | 0.03 | 0.48 | 0.48 | 93 | 1006.3 |
| 20260506071525 | 7 | 5 | 6.4 | 20.9 | 0.05 | 0.48 | 0.48 | 93 | 1005.9 |
| 20260506071504 | 7 | 26 | 6.4 | 20.9 | 0.05 | 0.48 | 0.48 | 93 | 1006.2 |
| 20260506071006 | 7 | 16 | 8.0 | 20.9 | 0.05 | 0.48 | 0.48 | 93 | 1006.2 |
| 20260506070506 | 7 | 44 | 6.4 | 27.4 | 0.05 | 0.48 | 0.48 | 93 | 1006.1 |
| 20260506062509 | 7 | 59 | 8.0 | 19.3 | 0.05 | 0.46 | 0.46 | 94 | 1005.9 |
| 20260506062009 | 7 | 46 | 8.0 | 19.3 | 0.05 | 0.46 | 0.46 | 93 | 1005.8 |
| 20260506061516 | 7 | 64 | 8.0 | 17.7 | 0.03 | 0.43 | 0.43 | 93 | 1005.8 |
| 20260506061505 | 7 | 355 | 8.0 | 17.7 | 0.03 | 0.43 | 0.43 | 93 | 1005.6 |
| 20260506061006 | 7 | 24 | 4.8 | 17.7 | 0.03 | 0.43 | 0.43 | 94 | 1005.7 |
| 20260506060506 | 7 | 59 | 8.0 | 20.9 | 0.03 | 0.43 | 0.43 | 94 | 1005.7 |
| 20260506051009 | 8 | 126 | 6.4 | 16.1 | 0.03 | 0.38 | 0.38 | 95 | 1005.4 |
| 20260506050506 | 8 | 71 | 3.2 | 17.7 | 0.03 | 0.38 | 0.38 | 95 | 1005.4 |
| 20260506045007 | 8 | 355 | 6.4 | 16.1 | 0.05 | 0.38 | 0.38 | 96 | 1005.6 |
| 20260506044549 | 8 | 327 | 4.8 | 20.9 | 0.05 | 0.41 | 0.38 | 96 | 1005.5 |
| 20260506044512 | 8 | 5 | 4.8 | 20.9 | 0.05 | 0.41 | 0.38 | 96 | 1005.2 |
| 20260506044005 | 8 | 30 | 4.8 | 20.9 | 0.03 | 0.38 | 0.36 | 96 | 1005.6 |
| 20260506043506 | 8 | 29 | 6.4 | 16.1 | 0.03 | 0.38 | 0.36 | 96 | 1005.6 |
| 20260506043020 | 8 | 17 | 4.8 | 12.9 | 0.05 | 0.38 | 0.36 | 96 | 1005.2 |
| 20260506043016 | 8 | 17 | 4.8 | 12.9 | 0.05 | 0.38 | 0.36 | 96 | 1005.6 |
| 20260506042509 | 8 | 38 | 4.8 | 14.5 | 0.05 | 0.38 | 0.36 | 96 | 1005.6 |
| 20260506042012 | 8 | 335 | 6.4 | 14.5 | 0.05 | 0.38 | 0.36 | 96 | 1005.6 |
| 20260506041522 | 8 | 355 | 6.4 | 16.1 | 0.03 | 0.36 | 0.36 | 95 | 1005.2 |
| 20260506041519 | 8 | 355 | 6.4 | 16.1 | 0.03 | 0.36 | 0.36 | 95 | 1005.6 |
| 20260506041012 | 8 | 355 | 9.7 | 16.1 | 0.05 | 0.38 | 0.36 | 95 | 1005.6 |
| 20260506040510 | 8 | 5 | 6.4 | 12.9 | 0.05 | 0.38 | 0.36 | 95 | 1005.7 |
| 20260506040026 | 8 | 336 | 4.8 | 14.5 | 0.08 | 0.41 | 0.36 | 95 | 1005.3 |
| 20260506040022 | 8 | 336 | 4.8 | 14.5 | 0.08 | 0.41 | 0.36 | 95 | 1005.6 |
| 20260506035506 | 8 | 348 | 6.4 | 14.5 | 0.08 | 0.41 | 0.36 | 95 | 1005.6 |
| 20260506035007 | 8 | 340 | 8.0 | 12.9 | 0.08 | 0.41 | 0.33 | 95 | 1005.7 |
| 20260506034543 | 8 | 348 | 6.4 | 12.9 | 0.08 | 0.41 | 0.33 | 95 | 1005.7 |
| 20260506034506 | 8 | 348 | 6.4 | 12.9 | 0.08 | 0.41 | 0.33 | 95 | 1005.3 |
| 20260506034008 | 8 | 334 | 4.8 | 12.9 | 0.08 | 0.43 | 0.33 | 95 | 1005.8 |
| 20260506033506 | 8 | 342 | 6.4 | 12.9 | 0.08 | 0.43 | 0.33 | 95 | 1005.8 |
| 20260506033021 | 8 | 355 | 4.8 | 16.1 | 0.08 | 0.43 | 0.30 | 95 | 1005.8 |
| 20260506033018 | 8 | 340 | 4.8 | 16.1 | 0.08 | 0.43 | 0.30 | 95 | 1005.5 |
| 20260506032507 | 8 | 344 | 6.4 | 16.1 | 0.08 | 0.43 | 0.30 | 95 | 1005.9 |
| 20260506032008 | 8 | 350 | 4.8 | 16.1 | 0.10 | 0.46 | 0.30 | 95 | 1005.8 |
| 20260506031532 | 8 | 333 | 4.8 | 16.1 | 0.10 | 0.46 | 0.30 | 95 | 1005.5 |
| 20260506031521 | 8 | 333 | 4.8 | 16.1 | 0.10 | 0.46 | 0.30 | 95 | 1005.8 |
| 20260506031008 | 8 | 348 | 6.4 | 16.1 | 0.08 | 0.46 | 0.28 | 95 | 1005.8 |
| 20260506030510 | 8 | 336 | 6.4 | 14.5 | 0.08 | 0.46 | 0.28 | 95 | 1005.9 |
| 20260506030026 | 8 | 340 | 6.4 | 12.9 | 0.08 | 0.48 | 0.28 | 95 | 1005.6 |
| 20260506030019 | 8 | 340 | 6.4 | 12.9 | 0.08 | 0.48 | 0.28 | 95 | 1005.9 |
| 20260506025512 | 8 | 5 | 4.8 | 12.9 | 0.08 | 0.53 | 0.28 | 95 | 1005.9 |
| 20260506025007 | 8 | 343 | 3.2 | 14.5 | 0.08 | 0.53 | 0.25 | 95 | 1005.9 |
| 20260506024529 | 8 | 298 | 4.8 | 19.3 | 0.08 | 0.56 | 0.25 | 95 | 1005.6 |
| 20260506024520 | 8 | 298 | 4.8 | 19.3 | 0.08 | 0.56 | 0.25 | 95 | 1006.0 |
| 20260506024011 | 8 | 338 | 4.8 | 19.3 | 0.08 | 0.56 | 0.23 | 95 | 1006.0 |
| 20260506023513 | 8 | 350 | 4.8 | 16.1 | 0.08 | 0.56 | 0.23 | 95 | 1006.0 |
| 20260506023021 | 8 | 333 | 6.4 | 16.1 | 0.08 | 0.56 | 0.20 | 95 | 1006.0 |
| 20260506023011 | 8 | 333 | 6.4 | 16.1 | 0.08 | 0.56 | 0.20 | 95 | 1005.7 |
| 20260506022510 | 8 | 339 | 8.0 | 14.5 | 0.08 | 0.56 | 0.20 | 95 | 1006.1 |
| 20260506022009 | 8 | 355 | 4.8 | 16.1 | 0.08 | 0.56 | 0.18 | 95 | 1006.1 |
| 20260506021517 | 8 | 355 | 6.4 | 17.7 | 0.08 | 0.58 | 0.18 | 95 | 1006.1 |
| 20260506021009 | 8 | 326 | 6.4 | 19.3 | 0.08 | 0.61 | 0.18 | 95 | 1006.2 |
| 20260506020509 | 8 | 340 | 8.0 | 19.3 | 0.08 | 0.61 | 0.18 | 95 | 1006.1 |
| 20260506020022 | 8 | 107 | 6.4 | 17.7 | 0.08 | 0.61 | 0.18 | 95 | 1005.9 |